| time (UTC) | temp F | wind direction | speed MPH | gust MPH | rain 1hr in | rain 24hr in | rain mn in | humidity % | barometer mb |
| 20260506181004 | 66 | 33 | 0.0 | 0.0 | 0.00 | 0.00 | 0.00 | 58 | 1007.7 |
| 20260506180502 | 67 | 33 | 0.0 | 0.0 | 0.00 | 0.00 | 0.00 | 56 | 1007.7 |
| 20260506180005 | 68 | 33 | 0.0 | 0.0 | 0.00 | 0.00 | 0.00 | 55 | 1007.6 |
| 20260506175502 | 68 | 33 | 0.0 | 0.0 | 0.00 | 0.00 | 0.00 | 53 | 1007.7 |
| 20260506175004 | 69 | 38 | 0.0 | 0.0 | 0.00 | 0.00 | 0.00 | 53 | 1007.7 |
| 20260506174504 | 71 | 38 | 0.0 | 0.0 | 0.00 | 0.00 | 0.00 | 51 | 1007.6 |
| 20260506174004 | 71 | 54 | 0.0 | 1.0 | 0.00 | 0.00 | 0.00 | 48 | 1007.7 |
| 20260506173506 | 72 | 36 | 0.0 | 1.0 | 0.00 | 0.00 | 0.00 | 46 | 1007.8 |
| 20260506173002 | 72 | 354 | 0.0 | 0.0 | 0.00 | 0.00 | 0.00 | 47 | 1007.7 |
| 20260506172503 | 73 | 354 | 0.0 | 1.0 | 0.00 | 0.00 | 0.00 | 46 | 1007.6 |
| 20260506172003 | 72 | 354 | 0.0 | 1.0 | 0.00 | 0.00 | 0.00 | 46 | 1007.5 |
| 20260506171504 | 72 | 355 | 0.0 | 1.0 | 0.00 | 0.00 | 0.00 | 46 | 1007.7 |
| 20260506171002 | 72 | 16 | 0.0 | 1.0 | 0.00 | 0.00 | 0.00 | 46 | 1007.6 |
| 20260506170503 | 72 | 63 | 0.0 | 0.0 | 0.00 | 0.00 | 0.00 | 45 | 1007.8 |
| 20260506170006 | 72 | 43 | 1.0 | 2.0 | 0.00 | 0.00 | 0.00 | 44 | 1007.8 |
| 20260506165503 | 72 | 25 | 1.0 | 2.0 | 0.00 | 0.00 | 0.00 | 44 | 1007.7 |
| 20260506165004 | 72 | 54 | 2.0 | 3.0 | 0.00 | 0.00 | 0.00 | 44 | 1007.8 |
| 20260506164503 | 72 | 90 | 2.0 | 3.0 | 0.00 | 0.00 | 0.00 | 44 | 1007.7 |
| 20260506164003 | 72 | 50 | 1.0 | 1.0 | 0.00 | 0.00 | 0.00 | 44 | 1007.7 |
| 20260506163502 | 72 | 65 | 0.0 | 2.0 | 0.00 | 0.00 | 0.00 | 44 | 1007.8 |
| 20260506163004 | 72 | 61 | 0.0 | 2.0 | 0.00 | 0.00 | 0.00 | 44 | 1007.7 |
| 20260506162503 | 73 | 54 | 0.0 | 3.0 | 0.00 | 0.00 | 0.00 | 43 | 1007.8 |
| 20260506162003 | 73 | 97 | 2.0 | 5.0 | 0.00 | 0.00 | 0.00 | 43 | 1007.8 |
| 20260506161503 | 73 | 35 | 1.0 | 2.0 | 0.00 | 0.00 | 0.00 | 43 | 1007.9 |
| 20260506161002 | 73 | 69 | 3.0 | 5.0 | 0.00 | 0.00 | 0.00 | 42 | 1007.8 |
| 20260506160505 | 73 | 129 | 1.0 | 2.0 | 0.00 | 0.00 | 0.00 | 43 | 1007.7 |
| 20260506160003 | 74 | 118 | 1.0 | 2.0 | 0.00 | 0.00 | 0.00 | 44 | 1007.9 |
| 20260506155503 | 74 | 4 | 3.0 | 3.0 | 0.00 | 0.00 | 0.00 | 42 | 1008.0 |
| 20260506155005 | 74 | 58 | 1.0 | 5.0 | 0.00 | 0.00 | 0.00 | 41 | 1008.1 |
| 20260506154503 | 74 | 14 | 3.0 | 6.0 | 0.00 | 0.00 | 0.00 | 40 | 1008.1 |
| 20260506154003 | 75 | 89 | 6.0 | 7.0 | 0.00 | 0.00 | 0.00 | 40 | 1008.4 |
| 20260506153503 | 76 | 86 | 4.0 | 6.0 | 0.00 | 0.00 | 0.00 | 38 | 1008.3 |
| 20260506153004 | 75 | 346 | 3.0 | 7.0 | 0.00 | 0.00 | 0.00 | 38 | 1008.1 |
| 20260506152503 | 75 | 71 | 6.0 | 10.0 | 0.00 | 0.00 | 0.00 | 39 | 1008.1 |
| 20260506152002 | 75 | 25 | 4.0 | 8.0 | 0.00 | 0.00 | 0.00 | 38 | 1008.3 |
| 20260506151507 | 75 | 97 | 4.0 | 5.0 | 0.00 | 0.00 | 0.00 | 38 | 1008.2 |
| 20260506151003 | 75 | 94 | 1.0 | 3.0 | 0.00 | 0.00 | 0.00 | 39 | 1008.3 |
| 20260506150503 | 76 | 350 | 5.0 | 7.0 | 0.00 | 0.00 | 0.00 | 37 | 1008.2 |
| 20260506150003 | 75 | 67 | 3.0 | 7.0 | 0.00 | 0.00 | 0.00 | 38 | 1008.3 |
| 20260506145504 | 77 | 352 | 2.0 | 9.0 | 0.00 | 0.00 | 0.00 | 36 | 1008.3 |
| 20260506145004 | 77 | 99 | 3.0 | 7.0 | 0.00 | 0.00 | 0.00 | 36 | 1008.3 |
| 20260506144504 | 77 | 64 | 4.0 | 8.0 | 0.00 | 0.00 | 0.00 | 36 | 1008.2 |
| 20260506144004 | 78 | 98 | 6.0 | 13.0 | 0.00 | 0.00 | 0.00 | 36 | 1008.3 |
| 20260506143503 | 79 | 359 | 8.0 | 11.0 | 0.00 | 0.00 | 0.00 | 35 | 1008.4 |
| 20260506143003 | 78 | 44 | 4.0 | 5.0 | 0.00 | 0.00 | 0.00 | 36 | 1008.3 |
| 20260506142502 | 77 | 103 | 5.0 | 9.0 | 0.00 | 0.00 | 0.00 | 38 | 1008.4 |
| 20260506142003 | 76 | 90 | 4.0 | 8.0 | 0.00 | 0.00 | 0.00 | 38 | 1008.3 |
| 20260506141503 | 76 | 82 | 5.0 | 8.0 | 0.00 | 0.00 | 0.00 | 39 | 1008.4 |
| 20260506141005 | 76 | 132 | 3.0 | 3.0 | 0.00 | 0.00 | 0.00 | 40 | 1008.3 |
| 20260506140503 | 75 | 77 | 4.0 | 8.0 | 0.00 | 0.00 | 0.00 | 40 | 1008.6 |
| 20260506140003 | 75 | 38 | 4.0 | 9.0 | 0.00 | 0.00 | 0.00 | 40 | 1008.5 |
| 20260506135503 | 76 | 100 | 4.0 | 7.0 | 0.00 | 0.00 | 0.00 | 40 | 1008.4 |
| 20260506135004 | 76 | 5 | 4.0 | 9.0 | 0.00 | 0.00 | 0.00 | 39 | 1008.3 |
| 20260506134503 | 79 | 107 | 5.0 | 7.0 | 0.00 | 0.00 | 0.00 | 38 | 1008.4 |
| 20260506134002 | 76 | 66 | 4.0 | 6.0 | 0.00 | 0.00 | 0.00 | 39 | 1008.4 |
| 20260506133503 | 76 | 30 | 8.0 | 11.0 | 0.00 | 0.00 | 0.00 | 37 | 1008.4 |
| 20260506133002 | 78 | 84 | 1.0 | 7.0 | 0.00 | 0.00 | 0.00 | 38 | 1008.5 |
| 20260506132502 | 77 | 36 | 4.0 | 8.0 | 0.00 | 0.00 | 0.00 | 39 | 1008.5 |
| 20260506132002 | 77 | 68 | 4.0 | 10.0 | 0.00 | 0.00 | 0.00 | 40 | 1008.7 |
| 20260506131503 | 76 | 28 | 3.0 | 7.0 | 0.00 | 0.00 | 0.00 | 40 | 1008.5 |
| 20260506131005 | 75 | 42 | 3.0 | 7.0 | 0.00 | 0.00 | 0.00 | 42 | 1008.6 |
| 20260506130503 | 76 | 19 | 3.0 | 10.0 | 0.00 | 0.00 | 0.00 | 42 | 1008.5 |
| 20260506130005 | 77 | 35 | 4.0 | 10.0 | 0.00 | 0.00 | 0.00 | 41 | 1008.6 |
| 20260506125504 | 77 | 89 | 5.0 | 13.0 | 0.00 | 0.00 | 0.00 | 39 | 1008.5 |
| 20260506125004 | 77 | 55 | 6.0 | 9.0 | 0.00 | 0.00 | 0.00 | 39 | 1008.6 |
| 20260506124503 | 77 | 26 | 9.0 | 11.0 | 0.00 | 0.00 | 0.00 | 39 | 1008.7 |
| 20260506124004 | 77 | 344 | 2.0 | 10.0 | 0.00 | 0.00 | 0.00 | 41 | 1008.6 |
| 20260506123503 | 77 | 74 | 4.0 | 9.0 | 0.00 | 0.00 | 0.00 | 41 | 1008.8 |
| 20260506123002 | 77 | 61 | 4.0 | 11.0 | 0.00 | 0.00 | 0.00 | 39 | 1008.9 |
| 20260506122502 | 76 | 108 | 4.0 | 10.0 | 0.00 | 0.00 | 0.00 | 39 | 1008.7 |
| 20260506122004 | 76 | 71 | 8.0 | 10.0 | 0.00 | 0.00 | 0.00 | 39 | 1008.8 |
| 20260506121502 | 76 | 340 | 3.0 | 10.0 | 0.00 | 0.00 | 0.00 | 40 | 1008.5 |
| 20260506121005 | 76 | 42 | 3.0 | 11.0 | 0.00 | 0.00 | 0.00 | 42 | 1008.6 |
| 20260506120503 | 77 | 321 | 3.0 | 9.0 | 0.00 | 0.00 | 0.00 | 43 | 1008.7 |
| 20260506120003 | 77 | 348 | 1.0 | 8.0 | 0.00 | 0.00 | 0.00 | 43 | 1008.7 |
| 20260506115503 | 76 | 18 | 5.0 | 11.0 | 0.00 | 0.00 | 0.00 | 42 | 1008.4 |
| 20260506115004 | 76 | 11 | 5.0 | 10.0 | 0.00 | 0.00 | 0.00 | 43 | 1008.5 |
| 20260506114505 | 74 | 259 | 3.0 | 7.0 | 0.00 | 0.00 | 0.00 | 45 | 1008.5 |
| 20260506114003 | 76 | 23 | 3.0 | 9.0 | 0.00 | 0.00 | 0.00 | 43 | 1008.6 |
| 20260506113503 | 76 | 27 | 4.0 | 11.0 | 0.00 | 0.00 | 0.00 | 42 | 1008.5 |
| 20260506113003 | 76 | 55 | 3.0 | 7.0 | 0.00 | 0.00 | 0.00 | 44 | 1008.5 |
| 20260506112503 | 76 | 341 | 5.0 | 7.0 | 0.00 | 0.00 | 0.00 | 43 | 1008.7 |
| 20260506112003 | 75 | 45 | 3.0 | 13.0 | 0.00 | 0.00 | 0.00 | 44 | 1008.7 |
| 20260506111502 | 75 | 1 | 8.0 | 13.0 | 0.00 | 0.00 | 0.00 | 44 | 1008.8 |
| 20260506111002 | 75 | 355 | 5.0 | 8.0 | 0.00 | 0.00 | 0.00 | 45 | 1008.8 |
| 20260506110505 | 75 | 94 | 5.0 | 11.0 | 0.00 | 0.00 | 0.00 | 45 | 1008.9 |
| 20260506110002 | 74 | 32 | 6.0 | 10.0 | 0.00 | 0.00 | 0.00 | 45 | 1008.9 |
| 20260506105503 | 73 | 199 | 4.0 | 10.0 | 0.00 | 0.00 | 0.00 | 45 | 1008.9 |
| 20260506105004 | 73 | 319 | 5.0 | 8.0 | 0.00 | 0.00 | 0.00 | 47 | 1008.8 |
| 20260506104504 | 73 | 70 | 7.0 | 9.0 | 0.00 | 0.00 | 0.00 | 46 | 1008.7 |
| 20260506104003 | 73 | 57 | 3.0 | 6.0 | 0.00 | 0.00 | 0.00 | 47 | 1008.8 |
| 20260506103502 | 74 | 13 | 8.0 | 14.0 | 0.00 | 0.00 | 0.00 | 45 | 1008.6 |
| 20260506103003 | 73 | 32 | 4.0 | 9.0 | 0.00 | 0.00 | 0.00 | 47 | 1008.8 |
| 20260506102502 | 72 | 313 | 7.0 | 10.0 | 0.00 | 0.00 | 0.00 | 49 | 1008.7 |
| 20260506102003 | 73 | 95 | 3.0 | 6.0 | 0.00 | 0.00 | 0.00 | 49 | 1008.7 |
| 20260506101503 | 73 | 22 | 6.0 | 10.0 | 0.00 | 0.00 | 0.00 | 47 | 1009.0 |
| 20260506101003 | 72 | 55 | 6.0 | 10.0 | 0.00 | 0.00 | 0.00 | 49 | 1009.0 |
| 20260506100504 | 72 | 5 | 3.0 | 6.0 | 0.00 | 0.00 | 0.00 | 49 | 1008.8 |
| 20260506100005 | 71 | 341 | 5.0 | 10.0 | 0.00 | 0.00 | 0.00 | 49 | 1008.8 |
| 20260506095503 | 71 | 26 | 3.0 | 8.0 | 0.00 | 0.00 | 0.00 | 49 | 1008.7 |
| 20260506095004 | 71 | 58 | 1.0 | 5.0 | 0.00 | 0.00 | 0.00 | 50 | 1008.6 |
| 20260506094504 | 71 | 3 | 2.0 | 3.0 | 0.00 | 0.00 | 0.00 | 51 | 1008.8 |
| 20260506094004 | 71 | 352 | 3.0 | 11.0 | 0.00 | 0.00 | 0.00 | 48 | 1008.6 |
| 20260506093504 | 73 | 23 | 4.0 | 10.0 | 0.00 | 0.00 | 0.00 | 46 | 1008.4 |
| 20260506093003 | 73 | 96 | 3.0 | 9.0 | 0.00 | 0.00 | 0.00 | 47 | 1008.4 |
| 20260506092503 | 73 | 255 | 1.0 | 3.0 | 0.00 | 0.00 | 0.00 | 47 | 1008.7 |
| 20260506092004 | 72 | 84 | 3.0 | 5.0 | 0.00 | 0.00 | 0.00 | 49 | 1008.4 |
| 20260506091504 | 72 | 56 | 4.0 | 5.0 | 0.00 | 0.00 | 0.00 | 48 | 1008.6 |
| 20260506091003 | 71 | 65 | 2.0 | 6.0 | 0.00 | 0.00 | 0.00 | 50 | 1008.5 |
| 20260506090504 | 71 | 42 | 2.0 | 7.0 | 0.00 | 0.00 | 0.00 | 50 | 1008.5 |
| 20260506090004 | 71 | 46 | 3.0 | 7.0 | 0.00 | 0.00 | 0.00 | 50 | 1008.3 |
| 20260506085503 | 71 | 15 | 2.0 | 13.0 | 0.00 | 0.00 | 0.00 | 51 | 1008.3 |
| 20260506085003 | 71 | 65 | 3.0 | 5.0 | 0.00 | 0.00 | 0.00 | 51 | 1008.3 |
| 20260506084503 | 71 | 205 | 2.0 | 6.0 | 0.00 | 0.00 | 0.00 | 52 | 1008.3 |
| 20260506084003 | 71 | 108 | 3.0 | 5.0 | 0.00 | 0.00 | 0.00 | 54 | 1008.3 |
| 20260506083502 | 70 | 36 | 4.0 | 5.0 | 0.00 | 0.00 | 0.00 | 53 | 1008.4 |
| 20260506083004 | 69 | 11 | 3.0 | 6.0 | 0.00 | 0.00 | 0.00 | 54 | 1008.3 |
| 20260506082503 | 69 | 23 | 1.0 | 6.0 | 0.00 | 0.00 | 0.00 | 55 | 1008.6 |
| 20260506082005 | 69 | 85 | 2.0 | 8.0 | 0.00 | 0.00 | 0.00 | 54 | 1008.3 |
| 20260506081502 | 69 | 48 | 1.0 | 6.0 | 0.00 | 0.00 | 0.00 | 55 | 1008.4 |
| 20260506081002 | 68 | 357 | 3.0 | 6.0 | 0.00 | 0.00 | 0.00 | 56 | 1008.3 |
| 20260506080503 | 68 | 81 | 3.0 | 7.0 | 0.00 | 0.00 | 0.00 | 55 | 1008.4 |
| 20260506073504 | 67 | 341 | 2.0 | 7.0 | 0.00 | 0.00 | 0.00 | 57 | 1008.2 |
| 20260506073003 | 67 | 5 | 5.0 | 8.0 | 0.00 | 0.00 | 0.00 | 56 | 1008.3 |
| 20260506072503 | 67 | 151 | 4.0 | 7.0 | 0.00 | 0.00 | 0.00 | 57 | 1008.4 |
| 20260506072005 | 66 | 17 | 6.0 | 8.0 | 0.00 | 0.00 | 0.00 | 58 | 1008.1 |
| 20260506071503 | 66 | 356 | 6.0 | 8.0 | 0.00 | 0.00 | 0.00 | 58 | 1008.3 |
| 20260506071003 | 67 | 2 | 3.0 | 8.0 | 0.00 | 0.00 | 0.00 | 58 | 1008.2 |
| 20260506070504 | 66 | 118 | 3.0 | 5.0 | 0.00 | 0.00 | 0.00 | 59 | 1008.4 |
| 20260506062503 | 63 | 74 | 1.0 | 6.0 | 0.00 | 0.00 | 0.00 | 62 | 1007.8 |
| 20260506062005 | 63 | 46 | 6.0 | 10.0 | 0.00 | 0.00 | 0.00 | 62 | 1007.7 |
| 20260506061504 | 63 | 42 | 4.0 | 9.0 | 0.00 | 0.00 | 0.00 | 62 | 1007.8 |
| 20260506061004 | 63 | 61 | 3.0 | 9.0 | 0.00 | 0.00 | 0.00 | 63 | 1007.6 |
| 20260506060502 | 62 | 42 | 3.0 | 8.0 | 0.00 | 0.00 | 0.00 | 64 | 1007.9 |
| 20260506051004 | 61 | 101 | 4.0 | 9.0 | 0.00 | 0.00 | 0.00 | 65 | 1007.8 |
| 20260506050503 | 61 | 82 | 2.0 | 8.0 | 0.00 | 0.00 | 0.00 | 65 | 1007.7 |
| 20260506045003 | 60 | 30 | 4.0 | 7.0 | 0.00 | 0.00 | 0.00 | 66 | 1007.8 |
| 20260506044503 | 60 | 34 | 6.0 | 8.0 | 0.00 | 0.00 | 0.00 | 66 | 1007.8 |
| 20260506044004 | 60 | 16 | 2.0 | 7.0 | 0.00 | 0.00 | 0.00 | 66 | 1007.8 |
| 20260506043504 | 59 | 77 | 3.0 | 5.0 | 0.00 | 0.00 | 0.00 | 66 | 1007.8 |
| 20260506043003 | 59 | 25 | 0.0 | 6.0 | 0.00 | 0.00 | 0.00 | 67 | 1007.8 |
| 20260506042502 | 58 | 70 | 2.0 | 3.0 | 0.00 | 0.00 | 0.00 | 67 | 1007.8 |
| 20260506042003 | 58 | 53 | 2.0 | 5.0 | 0.00 | 0.00 | 0.00 | 67 | 1007.8 |
| 20260506041505 | 58 | 61 | 0.0 | 2.0 | 0.00 | 0.00 | 0.00 | 68 | 1007.9 |
| 20260506041004 | 58 | 19 | 0.0 | 1.0 | 0.00 | 0.00 | 0.00 | 68 | 1007.9 |
| 20260506040502 | 58 | 53 | 0.0 | 5.0 | 0.00 | 0.00 | 0.00 | 67 | 1007.9 |
| 20260506040006 | 58 | 355 | 0.0 | 5.0 | 0.00 | 0.00 | 0.00 | 67 | 1007.8 |
| 20260506035504 | 58 | 30 | 1.0 | 3.0 | 0.00 | 0.00 | 0.00 | 66 | 1007.8 |
| 20260506035004 | 58 | 32 | 1.0 | 3.0 | 0.00 | 0.00 | 0.00 | 67 | 1007.8 |
| 20260506034504 | 58 | 47 | 1.0 | 5.0 | 0.00 | 0.00 | 0.00 | 67 | 1008.0 |
| 20260506034004 | 57 | 59 | 1.0 | 6.0 | 0.00 | 0.00 | 0.00 | 67 | 1007.8 |
| 20260506033503 | 56 | 60 | 0.0 | 2.0 | 0.00 | 0.00 | 0.00 | 69 | 1007.8 |
| 20260506033003 | 55 | 9 | 0.0 | 0.0 | 0.00 | 0.00 | 0.00 | 71 | 1007.7 |
| 20260506032503 | 55 | 77 | 1.0 | 3.0 | 0.00 | 0.00 | 0.00 | 71 | 1008.0 |
| 20260506032002 | 54 | 18 | 0.0 | 1.0 | 0.00 | 0.00 | 0.00 | 73 | 1007.9 |
| 20260506031503 | 54 | 15 | 1.0 | 1.0 | 0.00 | 0.00 | 0.00 | 73 | 1007.9 |
| 20260506031004 | 53 | 328 | 1.0 | 2.0 | 0.00 | 0.00 | 0.00 | 76 | 1007.8 |
| 20260506030503 | 48 | 318 | 0.0 | 1.0 | 0.00 | 0.00 | 0.00 | 85 | 1007.8 |
| 20260506030003 | 45 | 244 | 0.0 | 0.0 | 0.00 | 0.00 | 0.00 | 89 | 1007.7 |
| 20260506025503 | 45 | 269 | 0.0 | 1.0 | 0.00 | 0.00 | 0.00 | 89 | 1008.0 |
| 20260506025003 | 44 | 323 | 0.0 | 0.0 | 0.00 | 0.00 | 0.00 | 88 | 1007.9 |
| 20260506024505 | 45 | 323 | 0.0 | 0.0 | 0.00 | 0.00 | 0.00 | 88 | 1007.9 |
| 20260506024003 | 45 | 324 | 0.0 | 0.0 | 0.00 | 0.00 | 0.00 | 88 | 1007.8 |
| 20260506023505 | 45 | 333 | 0.0 | 0.0 | 0.00 | 0.00 | 0.00 | 87 | 1007.8 |
| 20260506023004 | 46 | 350 | 0.0 | 0.0 | 0.00 | 0.00 | 0.00 | 87 | 1007.9 |
| 20260506022502 | 46 | 356 | 0.0 | 0.0 | 0.00 | 0.00 | 0.00 | 86 | 1007.8 |
| 20260506022005 | 46 | 356 | 0.0 | 0.0 | 0.00 | 0.00 | 0.00 | 85 | 1008.1 |
| 20260506021504 | 47 | 357 | 0.0 | 0.0 | 0.00 | 0.00 | 0.00 | 85 | 1008.0 |
| 20260506021003 | 47 | 9 | 0.0 | 0.0 | 0.00 | 0.00 | 0.00 | 84 | 1008.0 |
| 20260506020505 | 47 | 10 | 0.0 | 0.0 | 0.00 | 0.00 | 0.00 | 84 | 1007.9 |
| 20260506020005 | 47 | 10 | 0.0 | 0.0 | 0.00 | 0.00 | 0.00 | 83 | 1007.9 |
| 20260506015506 | 47 | 10 | 0.0 | 0.0 | 0.00 | 0.00 | 0.00 | 83 | 1008.0 |
| 20260506015005 | 48 | 10 | 0.0 | 0.0 | 0.00 | 0.00 | 0.00 | 83 | 1008.2 |
| 20260506014504 | 47 | 10 | 0.0 | 0.0 | 0.00 | 0.00 | 0.00 | 84 | 1007.9 |
| 20260506014003 | 48 | 10 | 0.0 | 0.0 | 0.00 | 0.00 | 0.00 | 84 | 1008.1 |
| 20260506013503 | 48 | 10 | 0.0 | 0.0 | 0.00 | 0.00 | 0.00 | 83 | 1008.0 |
| 20260506013003 | 48 | 10 | 0.0 | 0.0 | 0.00 | 0.00 | 0.00 | 81 | 1007.9 |
| 20260506012508 | 49 | 10 | 0.0 | 0.0 | 0.00 | 0.00 | 0.00 | 80 | 1008.0 |
| 20260506012003 | 49 | 10 | 0.0 | 0.0 | 0.00 | 0.00 | 0.00 | 79 | 1007.9 |
| 20260506011504 | 49 | 10 | 0.0 | 0.0 | 0.00 | 0.00 | 0.00 | 78 | 1007.7 |
| 20260506011005 | 50 | 10 | 0.0 | 0.0 | 0.00 | 0.00 | 0.00 | 77 | 1007.9 |
| 20260506010505 | 50 | 10 | 0.0 | 0.0 | 0.00 | 0.00 | 0.00 | 76 | 1007.9 |
| 20260506010003 | 51 | 10 | 0.0 | 0.0 | 0.00 | 0.00 | 0.00 | 75 | 1007.9 |
| 20260506005504 | 51 | 10 | 0.0 | 0.0 | 0.00 | 0.00 | 0.00 | 73 | 1007.9 |
| 20260506005004 | 52 | 10 | 0.0 | 0.0 | 0.00 | 0.00 | 0.00 | 72 | 1007.9 |
| 20260506004503 | 53 | 10 | 0.0 | 0.0 | 0.00 | 0.00 | 0.00 | 71 | 1007.9 |
| 20260506004004 | 53 | 10 | 0.0 | 0.0 | 0.00 | 0.00 | 0.00 | 69 | 1007.9 |
| 20260506003502 | 54 | 10 | 0.0 | 0.0 | 0.00 | 0.00 | 0.00 | 68 | 1007.9 |
| 20260506003002 | 54 | 10 | 0.0 | 0.0 | 0.00 | 0.00 | 0.00 | 68 | 1008.0 |
| 20260506002503 | 54 | 95 | 0.0 | 0.0 | 0.00 | 0.00 | 0.00 | 66 | 1008.0 |
| 20260506002003 | 55 | 95 | 0.0 | 0.0 | 0.00 | 0.00 | 0.00 | 64 | 1008.2 |
| 20260506001504 | 56 | 83 | 0.0 | 0.0 | 0.00 | 0.00 | 0.00 | 64 | 1008.1 |
| 20260506001004 | 58 | 357 | 0.0 | 0.0 | 0.00 | 0.00 | 0.00 | 59 | 1008.1 |
| 20260506000503 | 59 | 357 | 0.0 | 0.0 | 0.00 | 0.00 | 0.00 | 56 | 1008.1 |
| 20260506000003 | 61 | 30 | 0.0 | 0.0 | 0.00 | 0.00 | 0.00 | 53 | 1008.0 |
| 20260505235503 | 62 | 56 | 0.0 | 1.0 | 0.00 | 0.00 | 0.00 | 51 | 1008.0 |
| 20260505235003 | 62 | 46 | 0.0 | 0.0 | 0.00 | 0.00 | 0.00 | 51 | 1008.1 |
| 20260505234505 | 63 | 62 | 0.0 | 2.0 | 0.00 | 0.00 | 0.00 | 50 | 1008.0 |
| 20260505234003 | 63 | 9 | 2.0 | 2.0 | 0.00 | 0.00 | 0.00 | 50 | 1008.1 |
| 20260505233503 | 63 | 1 | 3.0 | 7.0 | 0.00 | 0.00 | 0.00 | 49 | 1008.1 |
| 20260505233003 | 63 | 9 | 1.0 | 5.0 | 0.00 | 0.00 | 0.00 | 50 | 1008.0 |
| 20260505232502 | 63 | 338 | 0.0 | 3.0 | 0.00 | 0.00 | 0.00 | 51 | 1008.2 |
| 20260505232003 | 63 | 334 | 1.0 | 5.0 | 0.00 | 0.00 | 0.00 | 51 | 1008.2 |
| 20260505231504 | 62 | 330 | 3.0 | 6.0 | 0.00 | 0.00 | 0.00 | 51 | 1008.2 |
| 20260505231003 | 61 | 349 | 2.0 | 5.0 | 0.00 | 0.00 | 0.00 | 53 | 1008.2 |
| 20260505230502 | 60 | 328 | 1.0 | 2.0 | 0.00 | 0.00 | 0.00 | 55 | 1008.3 |
| 20260505230004 | 60 | 345 | 1.0 | 2.0 | 0.00 | 0.00 | 0.00 | 56 | 1008.3 |
| 20260505225502 | 60 | 351 | 0.0 | 1.0 | 0.00 | 0.00 | 0.00 | 57 | 1008.4 |
| 20260505225002 | 60 | 329 | 0.0 | 0.0 | 0.00 | 0.00 | 0.00 | 55 | 1008.3 |
| 20260505224503 | 62 | 330 | 0.0 | 0.0 | 0.00 | 0.00 | 0.00 | 53 | 1008.4 |
| 20260505224003 | 63 | 358 | 0.0 | 1.0 | 0.00 | 0.00 | 0.00 | 51 | 1008.3 |
| 20260505223503 | 63 | 326 | 0.0 | 1.0 | 0.00 | 0.00 | 0.00 | 50 | 1008.4 |
| 20260505223002 | 64 | 357 | 0.0 | 2.0 | 0.00 | 0.00 | 0.00 | 49 | 1008.5 |
| 20260505222504 | 64 | 340 | 0.0 | 1.0 | 0.00 | 0.00 | 0.00 | 49 | 1008.3 |
| 20260505222004 | 65 | 347 | 1.0 | 2.0 | 0.00 | 0.00 | 0.00 | 48 | 1008.5 |
| 20260505221505 | 65 | 345 | 0.0 | 2.0 | 0.00 | 0.00 | 0.00 | 47 | 1008.7 |
| 20260505221003 | 65 | 6 | 1.0 | 5.0 | 0.00 | 0.00 | 0.00 | 47 | 1008.7 |
| 20260505220003 | 66 | 6 | 1.0 | 5.0 | 0.00 | 0.00 | 0.00 | 46 | 1008.7 |
| 20260505215505 | 66 | 52 | 3.0 | 5.0 | 0.00 | 0.00 | 0.00 | 46 | 1008.5 |
| 20260505215003 | 66 | 53 | 4.0 | 10.0 | 0.00 | 0.00 | 0.00 | 46 | 1008.8 |
| 20260505214504 | 65 | 5 | 0.0 | 2.0 | 0.00 | 0.00 | 0.00 | 46 | 1008.8 |
| 20260505214004 | 65 | 350 | 1.0 | 3.0 | 0.00 | 0.00 | 0.00 | 46 | 1008.8 |
| 20260505213504 | 65 | 82 | 0.0 | 1.0 | 0.00 | 0.00 | 0.00 | 46 | 1008.7 |
| 20260505213005 | 65 | 11 | 1.0 | 3.0 | 0.00 | 0.00 | 0.00 | 45 | 1008.5 |
| 20260505212503 | 65 | 8 | 1.0 | 2.0 | 0.00 | 0.00 | 0.00 | 45 | 1008.6 |
| 20260505212005 | 65 | 86 | 0.0 | 1.0 | 0.00 | 0.00 | 0.00 | 45 | 1008.7 |
| 20260505211502 | 65 | 267 | 1.0 | 3.0 | 0.00 | 0.00 | 0.00 | 45 | 1008.6 |
| 20260505211004 | 65 | 343 | 3.0 | 5.0 | 0.00 | 0.00 | 0.00 | 45 | 1008.5 |
| 20260505210503 | 64 | 9 | 3.0 | 5.0 | 0.00 | 0.00 | 0.00 | 45 | 1008.6 |
| 20260505210002 | 64 | 15 | 0.0 | 2.0 | 0.00 | 0.00 | 0.00 | 46 | 1008.5 |
| 20260505205502 | 64 | 312 | 0.0 | 0.0 | 0.00 | 0.00 | 0.00 | 46 | 1008.5 |
| 20260505205002 | 63 | 70 | 0.0 | 1.0 | 0.00 | 0.00 | 0.00 | 46 | 1008.6 |
| 20260505204503 | 60 | 37 | 0.0 | 1.0 | 0.00 | 0.00 | 0.00 | 50 | 1008.5 |
| 20260505204003 | 56 | 349 | 0.0 | 1.0 | 0.00 | 0.00 | 0.00 | 55 | 1008.5 |
| 20260505203505 | 54 | 336 | 0.0 | 0.0 | 0.00 | 0.00 | 0.00 | 59 | 1008.6 |
| 20260505203006 | 53 | 325 | 0.0 | 0.0 | 0.00 | 0.00 | 0.00 | 63 | 1008.6 |
| 20260505202503 | 54 | 325 | 0.0 | 0.0 | 0.00 | 0.00 | 0.00 | 63 | 1008.6 |
| 20260505202004 | 54 | 325 | 0.0 | 0.0 | 0.00 | 0.00 | 0.00 | 60 | 1008.5 |
| 20260505201503 | 54 | 325 | 0.0 | 0.0 | 0.00 | 0.00 | 0.00 | 59 | 1008.6 |
| 20260505201005 | 54 | 325 | 0.0 | 0.0 | 0.00 | 0.00 | 0.00 | 59 | 1008.5 |
| 20260505200503 | 54 | 325 | 0.0 | 0.0 | 0.00 | 0.00 | 0.00 | 58 | 1008.4 |
| 20260505200004 | 55 | 325 | 0.0 | 0.0 | 0.00 | 0.00 | 0.00 | 58 | 1008.6 |
| 20260505195503 | 55 | 325 | 0.0 | 0.0 | 0.00 | 0.00 | 0.00 | 57 | 1008.4 |
| 20260505195003 | 55 | 325 | 0.0 | 0.0 | 0.00 | 0.00 | 0.00 | 56 | 1008.6 |
| 20260505194504 | 56 | 325 | 0.0 | 0.0 | 0.00 | 0.00 | 0.00 | 55 | 1008.3 |
| 20260505194003 | 55 | 325 | 0.0 | 0.0 | 0.00 | 0.00 | 0.00 | 53 | 1008.4 |
| 20260505193504 | 55 | 325 | 0.0 | 0.0 | 0.00 | 0.00 | 0.00 | 54 | 1008.7 |
| 20260505193003 | 55 | 325 | 0.0 | 0.0 | 0.00 | 0.00 | 0.00 | 56 | 1008.6 |
| 20260505192504 | 55 | 325 | 0.0 | 0.0 | 0.00 | 0.00 | 0.00 | 56 | 1008.5 |
| 20260505192003 | 56 | 325 | 0.0 | 0.0 | 0.00 | 0.00 | 0.00 | 56 | 1008.6 |
| 20260505191502 | 56 | 325 | 0.0 | 0.0 | 0.00 | 0.00 | 0.00 | 54 | 1008.6 |
| 20260505191003 | 57 | 325 | 0.0 | 0.0 | 0.00 | 0.00 | 0.00 | 53 | 1008.6 |
| 20260505190503 | 58 | 325 | 0.0 | 0.0 | 0.00 | 0.00 | 0.00 | 51 | 1008.6 |
| 20260505190003 | 59 | 325 | 0.0 | 0.0 | 0.00 | 0.00 | 0.00 | 49 | 1008.7 |
| 20260505185503 | 60 | 325 | 0.0 | 0.0 | 0.00 | 0.00 | 0.00 | 48 | 1008.6 |
| 20260505185007 | 60 | 325 | 0.0 | 0.0 | 0.00 | 0.00 | 0.00 | 47 | 1008.6 |
| 20260505184502 | 61 | 325 | 0.0 | 1.0 | 0.00 | 0.00 | 0.00 | 46 | 1008.4 |
| 20260505184002 | 61 | 325 | 0.0 | 0.0 | 0.00 | 0.00 | 0.00 | 46 | 1008.5 |
| 20260505183502 | 62 | 324 | 0.0 | 0.0 | 0.00 | 0.00 | 0.00 | 45 | 1008.6 |
| 20260505183004 | 63 | 324 | 0.0 | 0.0 | 0.00 | 0.00 | 0.00 | 44 | 1008.6 |
| 20260505182503 | 63 | 324 | 0.0 | 1.0 | 0.00 | 0.00 | 0.00 | 42 | 1008.6 |
| 20260505182002 | 64 | 326 | 0.0 | 0.0 | 0.00 | 0.00 | 0.00 | 44 | 1008.6 |
| 20260505181503 | 65 | 326 | 0.0 | 0.0 | 0.00 | 0.00 | 0.00 | 41 | 1008.4 |